Date,TemperatureHighF,TemperatureAvgF,TemperatureLowF,DewpointHighF,DewpointAvgF,DewpointLowF,HumidityHigh,HumidityAvg,HumidityLow,PressureMaxIn,PressureMinIn,WindSpeedMaxMPH,WindSpeedAvgMPH,GustSpeedMaxMPH,PrecipitationSumIn
2013-9-1,101.0,88.2,73.3,66.2,60.5,54.0,73,43,23,29.68,29.53,9,2,17,0.00
2013-9-2,101.0,86.5,77.6,64.0,59.8,51.7,62,43,20,29.74,29.52,11,2,17,0.00
2013-9-3,103.8,85.6,75.1,67.1,60.9,52.3,70,46,20,29.66,29.56,10,2,18,0.01
2013-9-4,103.1,88.5,72.5,64.0,54.6,46.0,70,37,16,29.72,29.57,9,2,17,0.00
2013-9-5,103.6,90.9,73.5,57.8,50.0,44.5,54,27,14,29.68,29.56,11,4,18,0.00
2013-9-6,101.5,86.7,77.4,64.9,55.0,49.5,54,35,19,29.69,29.56,11,3,16,0.00
2013-9-7,88.0,80.8,73.2,65.8,61.7,57.3,73,53,37,29.75,29.61,9,2,13,0.01
2013-9-8,85.5,77.0,72.5,71.1,65.8,60.4,86,69,46,29.67,29.56,8,2,9,0.08
2013-9-9,87.8,76.5,69.8,68.6,66.0,62.4,92,71,46,29.63,29.49,9,1,13,0.13
2013-9-10,89.7,77.3,65.6,67.5,60.4,53.0,94,60,30,29.69,29.59,8,2,12,0.02
2013-9-11,92.5,79.6,65.0,65.5,57.7,49.9,88,52,27,29.76,29.65,9,2,14,0.00
2013-9-12,96.8,87.4,73.9,62.8,54.0,47.5,56,34,22,29.66,29.51,8,4,16,0.00
2013-9-13,99.7,85.3,74.0,64.8,58.5,44.3,69,44,16,29.55,29.38,7,2,12,0.00
2013-9-14,103.6,88.7,78.1,63.1,56.2,45.6,59,36,15,29.49,29.36,9,4,14,0.00
2013-9-15,94.9,81.4,75.3,60.1,57.1,53.9,56,44,27,29.54,29.44,7,2,12,0.00
2013-9-16,99.4,92.6,87.4,57.9,54.2,46.6,36,28,17,29.53,29.45,9,5,12,0.00
2013-9-17,101.7,91.5,82.8,59.4,53.9,42.1,44,30,17,29.55,29.37,11,4,16,0.00
2013-9-18,102.5,88.7,76.1,49.0,43.7,36.8,36,22,11,29.52,29.39,7,2,12,0.00
2013-9-19,102.0,85.8,70.1,52.5,43.6,36.1,47,24,15,29.56,29.43,7,2,11,0.00
2013-9-20,102.8,85.2,68.6,56.7,46.1,37.7,42,27,14,29.60,29.48,9,2,11,0.00
2013-9-21,97.8,86.7,75.1,57.8,53.5,48.0,54,34,20,29.62,29.41,7,3,13,0.00
2013-9-22,93.8,82.6,70.6,64.3,52.0,33.8,58,37,19,29.54,29.37,13,4,19,0.00
2013-9-23,94.0,77.0,59.5,43.0,34.0,27.2,42,23,11,29.68,29.54,6,2,11,0.00
2013-9-24,100.2,80.6,62.7,41.6,35.8,28.7,40,22,11,29.76,29.56,7,2,10,0.00
2013-9-25,95.6,80.9,65.0,32.7,28.1,21.9,28,16,8,29.62,29.44,10,4,22,0.00
2013-9-26,93.6,79.9,64.7,58.8,36.5,20.8,57,23,14,29.53,29.41,12,6,22,0.00
2013-9-27,81.8,72.9,64.7,60.3,40.2,19.6,64,33,15,29.75,29.50,8,3,22,0.00
2013-9-28,88.6,69.2,55.1,42.3,29.7,22.2,34,24,15,29.87,29.74,5,1,22,0.00